Weather History for EIDW - January, 2014

Change the Weather History Date:

Saturday, January 25, 2014

  Actual Average Record
Temperature  
Mean Temperature 43 °F -  
Max Temperature 49 °F 46 °F 55 °F (2002)
Min Temperature 37 °F 36 °F 26 °F (2000)
Degree Days  
Heating Degree Days 22    
Moisture  
Dew Point 38 °F    
Average Humidity 78    
Maximum Humidity 93    
Minimum Humidity 55    
Precipitation  
Precipitation 0.12 in 0.07 in - ()
Sea Level Pressure  
Sea Level Pressure 29.79 in    
Wind  
Wind Speed 17 mph ()    
Max Wind Speed 40 mph    
Max Gust Speed 62 mph    
Visibility 8.8 miles    
Events Rain    
Averages and records for this station are not official NWS values.
T = Trace of Precipitation, MM = Missing Value Source: Averaged Metar Reports

Daily Weather History Graph

Daily Weather History Graph

Search for Another Location

Airport or City:

Trip Planner

Search our weather history database for the weather conditions in past years. The results will help you decide how hot, cold, wet, or windy it might be!

Date:

Astronomy

Jan. 25, 2014 Rise Set
Actual Time 8:21 AM GMT 4:54 PM GMT
Civil Twilight 7:41 AM GMT 5:33 PM GMT
Nautical Twilight 6:59 AM GMT 6:16 PM GMT
Astronomical Twilight 6:17 AM GMT 6:57 PM GMT
Moon 2:32 AM GMT (1/25) 11:47 AM GMT (1/25)
Length of Visible Light 9h 51m
Length of Day
8h 33m
Last Quarter, 36% of the Moon is Illuminated
Jan 25
Last Quarter
Jan 30
New
Feb 6
First Quarter
Feb 14
Full
Feb 22
Last Quarter

Hourly Weather History & Observations

Time (GMT) Temp. Windchill Dew Point Humidity Pressure Visibility Wind Dir Wind Speed Gust Speed Precip Events Conditions
12:00 AM 48 °F - 44 °F 82% 29.81 in 12 mi SW 11.2 mph - -   Partly Cloudy
12:00 AM 48.2 °F - 44.6 °F 87% 29.80 in 6.2 mi SW 11.5 mph - N/A   Mostly Cloudy
12:30 AM 48.2 °F - 44.6 °F 87% 29.80 in 6.2 mi SW 12.7 mph - N/A   Mostly Cloudy
1:00 AM 48 °F - 44 °F 80% 29.81 in 12 mi SW 11.2 mph - -   Overcast
1:00 AM 48.2 °F - 44.6 °F 87% 29.80 in 6.2 mi SW 12.7 mph - N/A   Mostly Cloudy
1:30 AM 48.2 °F - 44.6 °F 87% 29.80 in 6.2 mi SW 10.4 mph - N/A   Mostly Cloudy
2:00 AM 47 °F - 44 °F 85% 29.81 in 12 mi SW 13.4 mph - -   Partly Cloudy
2:00 AM 48.2 °F - 44.6 °F 87% 29.80 in 6.2 mi SW 13.8 mph - N/A   Scattered Clouds
2:30 AM 46.4 °F 41.1 °F 44.6 °F 93% 29.80 in 6.2 mi SW 11.5 mph - N/A   Scattered Clouds
3:00 AM 47 °F - 44 °F 83% 29.83 in 12 mi SW 13.4 mph - -   Partly Cloudy
3:00 AM 48.2 °F - 42.8 °F 82% 29.80 in 6.2 mi SW 12.7 mph - N/A   Mostly Cloudy
3:30 AM 48.2 °F - 42.8 °F 82% 29.80 in 6.2 mi SW 17.3 mph - N/A   Scattered Clouds
4:00 AM 47 °F - 43 °F 80% 29.81 in 12 mi SW 13.4 mph - -   Scattered Clouds
4:00 AM 46.4 °F 40.4 °F 42.8 °F 87% 29.80 in 6.2 mi SW 13.8 mph - N/A   Scattered Clouds
4:30 AM 46.4 °F 39.5 °F 42.8 °F 87% 29.77 in 6.2 mi SW 17.3 mph - N/A   Scattered Clouds
5:00 AM 47 °F - 42 °F 78% 29.79 in 12 mi SW 17.9 mph - -   Scattered Clouds
5:00 AM 46.4 °F 39.5 °F 42.8 °F 87% 29.77 in 6.2 mi SW 17.3 mph - N/A   Partly Cloudy
5:30 AM 46.4 °F 38.5 °F 42.8 °F 87% 29.77 in 6.2 mi SW 21.9 mph 34.5 mph N/A   Partly Cloudy
6:00 AM 46 °F - 41 °F 78% 29.78 in 12 mi SW 20.1 mph - -   Scattered Clouds
6:00 AM 46.4 °F 39.0 °F 41.0 °F 81% 29.77 in 6.2 mi SW 19.6 mph - N/A   Partly Cloudy
6:26 AM 46.4 °F 39.0 °F 41.0 °F 81% 29.77 in 6.2 mi SW 19.6 mph - N/A   Partly Cloudy
7:00 AM 47 °F - 40 °F 67% 29.76 in 12 mi SW 20.1 mph - -   Scattered Clouds
7:00 AM 46.4 °F 39.0 °F 39.2 °F 76% 29.74 in 6.2 mi SW 19.6 mph - N/A   Partly Cloudy
7:30 AM 48.2 °F - 39.2 °F 71% 29.74 in 6.2 mi SW 21.9 mph - N/A   Mostly Cloudy
8:00 AM 48 °F - 38 °F 60% 29.71 in 17 mi SW 26.8 mph - -   Scattered Clouds
8:00 AM 48.2 °F - 39.2 °F 71% 29.68 in 6.2 mi SW 26.5 mph 40.3 mph N/A   Mostly Cloudy
8:30 AM 48.2 °F - 39.2 °F 71% 29.68 in 6.2 mi SW 23.0 mph 36.8 mph N/A   Scattered Clouds
9:00 AM 48 °F - 38 °F 60% 29.69 in 17 mi SSW 22.4 mph - -   Partly Cloudy
9:00 AM 48.2 °F - 39.2 °F 71% 29.68 in 6.2 mi SSW 21.9 mph 33.4 mph N/A   Scattered Clouds
9:30 AM 48.2 °F - 39.2 °F 71% 29.65 in 6.2 mi SW 23.0 mph - N/A   Scattered Clouds
10:00 AM 49 °F - 38 °F 55% 29.65 in 17 mi SW 24.6 mph - -   Scattered Clouds
10:00 AM 48.2 °F - 39.2 °F 71% 29.62 in 6.2 mi SSW 26.5 mph - N/A   Scattered Clouds
10:30 AM 48.2 °F - 39.2 °F 71% 29.62 in 6.2 mi SW 26.5 mph 39.1 mph N/A   Mostly Cloudy
11:00 AM 44 °F - 38 °F 74% 29.67 in 6 mi WSW 33.6 mph - - Rain Light Rain Showers
11:00 AM 44.6 °F 34.1 °F 39.2 °F 81% 29.65 in 5.0 mi WSW 34.5 mph 46.0 mph N/A Rain Rain Showers
11:30 AM 44.6 °F 35.3 °F 39.2 °F 81% 29.65 in 6.2 mi WSW 26.5 mph - N/A Rain Light Rain Showers
12:00 PM 46 °F - 37 °F 60% 29.68 in 11 mi West 24.6 mph - - Rain Light Rain Showers
12:00 PM 46.4 °F 38.1 °F 39.2 °F 76% 29.65 in 6.2 mi West 24.2 mph - N/A   Mostly Cloudy
12:30 PM 41.0 °F 28.3 °F 35.6 °F 81% 29.68 in 6.2 mi West 40.3 mph 62.1 mph N/A   Mostly Cloudy
1:00 PM 43 °F - 35 °F 64% 29.71 in 16 mi West 29.1 mph - - Rain Light Rain Showers
1:00 PM 42.8 °F 32.7 °F 35.6 °F 76% 29.68 in 6.2 mi West 27.6 mph - N/A   Mostly Cloudy
1:30 PM 42.8 °F 32.7 °F 35.6 °F 76% 29.71 in 6.2 mi WSW 27.6 mph - N/A Rain Light Rain Showers
2:00 PM 43 °F - 35 °F 65% 29.73 in 14 mi West 29.1 mph - - Rain Light Rain Showers
2:00 PM 42.8 °F 32.5 °F 35.6 °F 76% 29.71 in 6.2 mi West 28.8 mph - N/A Rain Light Rain Showers
2:30 PM 42.8 °F 32.9 °F 35.6 °F 76% 29.71 in 6.2 mi West 26.5 mph - N/A   Partly Cloudy
3:00 PM 38 °F - 35 °F 87% 29.78 in 16 mi West 31.3 mph - - Rain Light Rain Showers
3:00 PM 37.4 °F 24.6 °F 35.6 °F 93% 29.77 in 6.2 mi West 32.2 mph - N/A   Partly Cloudy
3:30 PM 39.2 °F 28.3 °F 35.6 °F 87% 29.77 in 6.2 mi West 25.3 mph - N/A   Scattered Clouds
4:00 PM 41 °F - 35 °F 70% 29.83 in 16 mi West 24.6 mph - - Rain Light Rain Showers
4:00 PM 41.0 °F 30.7 °F 33.8 °F 76% 29.80 in 6.2 mi West 25.3 mph - N/A   Partly Cloudy
4:30 PM 41.0 °F 31.1 °F 33.8 °F 76% 29.83 in 6.2 mi West 23.0 mph 36.8 mph N/A   Partly Cloudy
5:00 PM 40 °F - 33 °F 69% 29.86 in 16 mi WSW 20.1 mph - -   Scattered Clouds
5:00 PM 39.2 °F 29.6 °F 33.8 °F 81% 29.83 in 6.2 mi WSW 19.6 mph - N/A   Partly Cloudy
5:30 PM 39.2 °F 30.2 °F 33.8 °F 81% 29.86 in 6.2 mi West 17.3 mph - N/A   Partly Cloudy
6:00 PM 39 °F - 34 °F 75% 29.90 in 16 mi West 15.7 mph - -   Partly Cloudy
6:00 PM 39.2 °F 30.2 °F 33.8 °F 81% 29.89 in 6.2 mi West 17.3 mph - N/A   Scattered Clouds
6:30 PM 39.2 °F 30.5 °F 33.8 °F 81% 29.89 in 6.2 mi WSW 16.1 mph - N/A   Scattered Clouds
7:00 PM 39 °F - 34 °F 74% 29.93 in 16 mi WSW 13.4 mph - -   Scattered Clouds
7:00 PM 39.2 °F 30.8 °F 33.8 °F 81% 29.92 in 6.2 mi WSW 15.0 mph - N/A   Partly Cloudy
7:30 PM 39.2 °F 31.2 °F 33.8 °F 81% 29.89 in 6.2 mi WSW 13.8 mph - N/A   Scattered Clouds
8:00 PM 39 °F - 33 °F 72% 29.93 in 16 mi WSW 17.9 mph - -   Scattered Clouds
8:00 PM 39.2 °F 30.5 °F 33.8 °F 81% 29.92 in 6.2 mi WSW 16.1 mph - N/A   Scattered Clouds
8:30 PM 39.2 °F 30.5 °F 32.0 °F 75% 29.92 in 6.2 mi WSW 16.1 mph - N/A   Scattered Clouds
9:00 PM 38 °F - 33 °F 76% 29.94 in 16 mi WSW 15.7 mph - -   Scattered Clouds
9:00 PM 39.2 °F 30.5 °F 33.8 °F 81% 29.92 in 6.2 mi WSW 16.1 mph - N/A   Scattered Clouds
9:30 PM 39.2 °F 30.8 °F 33.8 °F 81% 29.92 in 6.2 mi WSW 15.0 mph - N/A   Scattered Clouds
10:00 PM 38 °F - 33 °F 77% 29.91 in 16 mi WSW 17.9 mph - -   Scattered Clouds
10:00 PM 37.4 °F 27.8 °F 33.8 °F 87% 29.89 in 6.2 mi WSW 17.3 mph - N/A   Mostly Cloudy
10:30 PM 39.2 °F 30.2 °F 33.8 °F 81% 29.89 in 6.2 mi WSW 17.3 mph - N/A   Mostly Cloudy
11:00 PM 40 °F - 34 °F 72% 29.92 in 16 mi SW 11.2 mph - -   Scattered Clouds
11:00 PM 39.2 °F 31.6 °F 33.8 °F 81% 29.89 in 6.2 mi SW 12.7 mph - N/A   Mostly Cloudy
11:30 PM 41.0 °F 34.3 °F 35.6 °F 81% 29.89 in 6.2 mi SSW 11.5 mph - N/A   Mostly Cloudy